H1 CPF 2 NER 2025 12 5 9 339 01 glonass140 H2 1903001 9140 44299 2025 12 5 0 0 0 2025 12 8 23 45 0 900 1 1 0 0 0 1 H9 10 0 61014 0.00000 0 17106922.750 -16262812.596 -9667527.538 10 0 61014 900.00000 0 16260201.738 -15181712.095 -12473557.343 10 0 61014 1800.00000 0 15331925.465 -13753845.425 -15037173.140 10 0 61014 2700.00000 0 14380714.569 -11993931.180 -17308492.755 10 0 61014 3600.00000 0 13462786.717 -9929286.342 -19243301.241 10 0 61014 4500.00000 0 12629505.981 -7598937.365 -20803916.430 10 0 61014 5400.00000 0 11925153.766 -5052244.865 -21959927.509 10 0 61014 6300.00000 0 11385015.711 -2347098.036 -22688791.991 10 0 61014 7200.00000 0 11033865.588 452246.927 -22976279.233 10 0 61014 8100.00000 0 10884910.439 3277595.163 -22816751.703 10 0 61014 9000.00000 0 10939241.685 6059407.753 -22213278.292 10 0 61014 9900.00000 0 11185815.549 8729454.991 -21177577.253 10 0 61014 10800.00000 0 11601963.695 11223418.188 -19729789.624 10 0 61014 11700.00000 0 12154412.555 13483331.930 -17898087.327 10 0 61014 12600.00000 0 12800768.132 15459765.201 -15718123.366 10 0 61014 13500.00000 0 13491403.321 17113650.767 -13232334.797 10 0 61014 14400.00000 0 14171667.516 18417686.895 -10489112.054 10 0 61014 15300.00000 0 14784324.534 19357253.481 -7541851.126 10 0 61014 16200.00000 0 15272115.036 19930805.180 -4447907.485 10 0 61014 17100.00000 0 15580334.336 20149726.310 -1267472.748 10 0 61014 18000.00000 0 15659315.761 20037655.013 1937603.249 10 0 61014 18900.00000 0 15466713.889 19629306.753 5105021.226 10 0 61014 19800.00000 0 14969490.552 18968848.266 8173247.819 10 0 61014 20700.00000 0 14145519.311 18107892.019 11082713.204 10 0 61014 21600.00000 0 12984740.416 17103197.034 13776967.341 10 0 61014 22500.00000 0 11489817.418 16014173.921 16203772.289 10 0 61014 23400.00000 0 9676267.691 14900299.849 18316109.596 10 0 61014 24300.00000 0 7572061.223 13818552.409 20073083.832 10 0 61014 25200.00000 0 5216704.195 12820970.018 21440705.582 10 0 61014 26100.00000 0 2659845.226 11952440.746 22392539.776 10 0 61014 27000.00000 0 -40538.266 11248811.468 22910207.922 10 0 61014 27900.00000 0 -2820299.052 10735395.572 22983735.595 10 0 61014 28800.00000 0 -5611535.789 10425940.703 22611739.356 10 0 61014 29700.00000 0 -8345166.518 10322098.825 21801450.104 10 0 61014 30600.00000 0 -10953554.684 10413420.043 20568572.695 10 0 61014 31500.00000 0 -13373080.202 10677869.994 18936984.471 10 0 61014 32400.00000 0 -15546550.380 11082848.952 16938278.089 10 0 61014 33300.00000 0 -17425351.876 11586670.035 14611156.809 10 0 61014 34200.00000 0 -18971255.319 12140434.770 12000693.036 10 0 61014 35100.00000 0 -20157798.306 12690227.640 9157463.527 10 0 61014 36000.00000 0 -20971189.698 13179537.716 6136577.033 10 0 61014 36900.00000 0 -21410697.775 13551805.677 2996612.479 10 0 61014 37800.00000 0 -21488506.153 13752988.936 -201512.363 10 0 61014 38700.00000 0 -21229043.523 13734036.449 -3395720.086 10 0 61014 39600.00000 0 -20667815.282 13453168.163 -6523977.931 10 0 61014 40500.00000 0 -19849786.117 12877862.010 -9525503.610 10 0 61014 41400.00000 0 -18827381.528 11986463.323 -12341948.950 10 0 61014 42300.00000 0 -17658192.489 10769347.333 -14918537.878 10 0 61014 43200.00000 0 -16402480.029 9229584.022 -17205136.198 10 0 61014 44100.00000 0 -15120584.985 7383075.562 -19157231.898 10 0 61014 45000.00000 0 -13870352.296 5258158.727 -20736806.519 10 0 61014 45900.00000 0 -12704678.494 2894687.174 -21913080.305 10 0 61014 46800.00000 0 -11669285.890 342630.389 -22663116.398 10 0 61014 47700.00000 0 -10800817.329 -2339753.518 -22972272.068 10 0 61014 48600.00000 0 -10125331.794 -5088096.061 -22834488.030 10 0 61014 49500.00000 0 -9657264.229 -7834357.716 -22252409.984 10 0 61014 50400.00000 0 -9398893.270 -10509427.324 -21237339.804 10 0 61014 51300.00000 0 -9340339.123 -13045773.647 -19809017.084 10 0 61014 52200.00000 0 -9460091.348 -15380038.899 -17995235.057 10 0 61014 53100.00000 0 -9726043.849 -17455466.230 -15831298.207 10 0 61014 54000.00000 0 -10096992.804 -19224060.077 -13359332.044 10 0 61014 54900.00000 0 -10524533.550 -20648389.388 -10627458.547 10 0 61014 55800.00000 0 -10955275.414 -21702958.687 -7688853.596 10 0 61014 56700.00000 0 -11333279.909 -22375090.213 -4600705.205 10 0 61014 57600.00000 0 -11602618.159 -22665281.019 -1423093.432 10 0 61014 58500.00000 0 -11709938.382 -22587021.159 1782185.411 10 0 61014 59400.00000 0 -11606933.907 -22166081.939 4952826.575 10 0 61014 60300.00000 0 -11252606.553 -21439305.626 8027232.431 10 0 61014 61200.00000 0 -10615229.105 -20452949.000 10945711.483 10 0 61014 62100.00000 0 -9673923.586 -19260651.791 13651637.087 10 0 61014 63000.00000 0 -8419788.427 -17921116.584 16092543.337 10 0 61014 63900.00000 0 -6856526.903 -16495598.512 18221136.988 10 0 61014 64800.00000 0 -5000550.183 -15045310.559 19996206.397 10 0 61014 65700.00000 0 -2880550.384 -13628853.282 21383410.715 10 0 61014 66600.00000 0 -536561.076 -12299776.229 22355935.035 10 0 61014 67500.00000 0 1981456.206 -11104372.358 22894999.961 10 0 61014 68400.00000 0 4615441.386 -10079796.604 22990216.806 10 0 61014 69300.00000 0 7301406.210 -9252586.111 22639782.428 10 0 61014 70200.00000 0 9971856.633 -8637642.702 21850510.599 10 0 61014 71100.00000 0 12558368.102 -8237719.036 20637699.572 10 0 61014 72000.00000 0 14994208.283 -8043429.034 19024838.352 10 0 61014 72900.00000 0 17216899.749 -8033781.501 17043156.955 10 0 61014 73800.00000 0 19170617.500 -8177214.236 14731028.630 10 0 61014 74700.00000 0 20808322.627 -8433085.189 12133234.772 10 0 61014 75600.00000 0 22093544.119 -8753558.099 9300105.769 10 0 61014 76500.00000 0 23001735.029 -9085803.539 6286553.484 10 0 61014 77400.00000 0 23521146.593 -9374422.842 3151013.341 10 0 61014 78300.00000 0 23653183.768 -9563992.769 -45684.081 10 0 61014 79200.00000 0 23412227.157 -9601623.376 -3241490.426 10 0 61014 80100.00000 0 22824928.504 -9439420.639 -6374343.140 10 0 61014 81000.00000 0 21929009.106 -9036749.059 -9383371.742 10 0 61014 81900.00000 0 20771611.342 -8362197.589 -12210083.087 10 0 61014 82800.00000 0 19407272.470 -7395164.547 -14799502.135 10 0 61014 83700.00000 0 17895605.792 -6126993.027 -17101245.569 10 0 61014 84600.00000 0 16298786.702 -4561607.193 -19070506.988 10 0 61014 85500.00000 0 14678949.383 -2715620.816 -20668934.038 10 0 61015 0.00000 0 13095603.812 -617911.830 -21865380.022 10 0 61015 900.00000 0 11603180.881 1691322.198 -22636515.674 10 0 61015 1800.00000 0 10248810.927 4161986.888 -22967287.426 10 0 61015 2700.00000 0 9070426.132 6735937.745 -22851215.209 10 0 61015 3600.00000 0 8095268.518 9349172.020 -22290522.078 10 0 61015 4500.00000 0 7338865.103 11934276.101 -21296093.649 10 0 61015 5400.00000 0 6804513.047 14423026.752 -19887267.761 10 0 61015 6300.00000 0 6483295.901 16749038.004 -18091458.240 10 0 61015 7200.00000 0 6354629.564 18850343.365 -15943619.911 10 0 61015 8100.00000 0 6387314.098 20671805.592 -13485565.212 10 0 61015 9000.00000 0 6541046.043 22167253.351 -10765145.757 10 0 61015 9900.00000 0 6768326.269 23301255.487 -7835315.048 10 0 61015 10800.00000 0 7016681.557 24050458.887 -4753091.052 10 0 61015 11700.00000 0 7231104.754 24404434.349 -1578439.425 10 0 61015 12600.00000 0 7356609.062 24365995.737 1626900.076 10 0 61015 13500.00000 0 7340787.270 23950979.985 4800620.351 10 0 61015 14400.00000 0 7136266.701 23187498.411 7881062.638 10 0 61015 15300.00000 0 6702955.256 22114692.062 10808416.807 10 0 61015 16200.00000 0 6009983.076 20781044.677 13525882.513 10 0 61015 17100.00000 0 5037257.467 19242325.237 15980768.590 10 0 61015 18000.00000 0 3776565.257 17559247.321 18125509.476 10 0 61015 18900.00000 0 2232176.004 15794943.966 19918579.553 10 0 61015 19800.00000 0 420920.451 14012363.848 21325288.495 10 0 61015 20700.00000 0 -1628259.426 12271697.475 22318443.223 10 0 61015 21600.00000 0 -3875270.496 10627940.186 22878864.768 10 0 61015 22500.00000 0 -6270299.416 9128692.694 22995751.130 10 0 61015 23400.00000 0 -8755655.788 7812289.682 22666880.003 10 0 61015 24300.00000 0 -11267952.031 6706333.139 21898648.101 10 0 61015 25200.00000 0 -13740530.745 5826690.244 20705946.650 10 0 61015 26100.00000 0 -16106040.039 5176996.410 19111875.397 10 0 61015 27000.00000 0 -18299051.239 4748683.219 17147300.297 10 0 61015 27900.00000 0 -20258611.400 4521529.310 14850262.726 10 0 61015 28800.00000 0 -21930625.446 4464710.663 12265250.820 10 0 61015 29700.00000 0 -23269969.501 4538305.988 9442346.056 10 0 61015 30600.00000 0 -24242247.735 4695193.849 6436260.657 10 0 61015 31500.00000 0 -24825119.505 4883261.722 3305283.671 10 0 61015 32400.00000 0 -25009141.161 5047833.841 110155.555 10 0 61015 33300.00000 0 -24798086.965 5134215.250 -3087107.332 10 0 61015 34200.00000 0 -24208735.158 5090244.270 -6224415.559 10 0 61015 35100.00000 0 -23270127.670 4868744.930 -9240813.321 10 0 61015 36000.00000 0 -22022334.004 4429774.812 -12077665.306 10 0 61015 36900.00000 0 -20514770.784 3742572.169 -14679800.163 10 0 61015 37800.00000 0 -18804147.213 2787118.670 -16996587.926 10 0 61015 38700.00000 0 -16952122.483 1555250.195 -18982929.989 10 0 61015 39600.00000 0 -15022773.347 51267.146 -20600141.914 10 0 61015 40500.00000 0 -13079978.086 -1707983.273 -21816711.625 10 0 61015 41400.00000 0 -11184826.532 -3693558.039 -22608917.914 10 0 61015 42300.00000 0 -9393164.714 -5865385.349 -22961297.016 10 0 61015 43200.00000 0 -7753376.945 -8173708.694 -22866947.979 10 0 61015 44100.00000 0 -6304498.089 -10560948.845 -22327670.649 10 0 61015 45000.00000 0 -5074734.840 -12963906.878 -21353933.403 10 0 61015 45900.00000 0 -4080457.529 -15316216.861 -19964670.978 10 0 61015 46800.00000 0 -3325704.100 -17550946.178 -18186916.144 10 0 61015 47700.00000 0 -2802216.274 -19603234.977 -16055272.195 10 0 61015 48600.00000 0 -2490005.319 -21412864.377 -13611236.474 10 0 61015 49500.00000 0 -2358422.446 -22926645.936 -10902388.106 10 0 61015 50400.00000 0 -2367687.363 -24100532.172 -7981456.080 10 0 61015 51300.00000 0 -2470809.060 -24901359.708 -4905286.202 10 0 61015 52200.00000 0 -2615816.227 -25308152.069 -1733727.657 10 0 61015 53100.00000 0 -2748201.569 -25312927.832 1471538.376 10 0 61015 54000.00000 0 -2813475.293 -24920980.775 4648204.420 10 0 61015 54900.00000 0 -2759718.570 -24150621.141 7734552.532 10 0 61015 55800.00000 0 -2540028.007 -23032389.833 10670655.893 10 0 61015 56700.00000 0 -2114747.068 -21607779.658 13399542.385 10 0 61015 57600.00000 0 -1453389.701 -19927518.241 15868297.476 10 0 61015 58500.00000 0 -536174.727 -18049485.501 18029085.110 10 0 61015 59400.00000 0 644893.834 -16036353.449 19840067.394 10 0 61015 60300.00000 0 2085446.092 -13953047.234 21266206.060 10 0 61015 61200.00000 0 3768689.876 -11864133.326 22279931.177 10 0 61015 62100.00000 0 5665881.318 -9831243.189 22861665.290 10 0 61015 63000.00000 0 7737303.400 -7910638.872 23000193.920 10 0 61015 63900.00000 0 9933712.406 -6151020.674 22692876.170 10 0 61015 64800.00000 0 12198193.076 -4591666.714 21945692.026 10 0 61015 65700.00000 0 14468346.450 -3260980.380 20773125.773 10 0 61015 66600.00000 0 16678720.652 -2175504.730 19197887.746 10 0 61015 67500.00000 0 18763384.804 -1339443.630 17250479.439 10 0 61015 68400.00000 0 20658540.195 -744708.543 14968609.693 10 0 61015 69300.00000 0 22305060.941 -371488.212 12396472.426 10 0 61015 70200.00000 0 23650859.018 -189316.785 9583898.914 10 0 61015 71100.00000 0 24652975.383 -158595.231 6585400.087 10 0 61015 72000.00000 0 25279309.942 -232501.865 3459116.608 10 0 61015 72900.00000 0 25509917.738 -359211.408 265696.434 10 0 61015 73800.00000 0 25337816.674 -484328.805 -2932878.736 10 0 61015 74700.00000 0 24769272.183 -553434.777 -6074495.481 10 0 61015 75600.00000 0 23823546.197 -514635.058 -9098115.683 10 0 61015 76500.00000 0 22532120.118 -321004.855 -11944964.876 10 0 61015 77400.00000 0 20937423.697 67175.744 -14559678.333 10 0 61015 78300.00000 0 19091122.488 680491.082 -16891382.220 10 0 61015 79200.00000 0 17052035.226 1538846.895 -18894688.293 10 0 61015 80100.00000 0 14883768.066 2650381.595 -20530582.371 10 0 61015 81000.00000 0 12652164.531 4010879.406 -21767188.968 10 0 61015 81900.00000 0 10422677.780 5603711.772 -22580396.920 10 0 61015 82800.00000 0 8257775.019 7400311.122 -22954333.579 10 0 61015 83700.00000 0 6214482.497 9361158.652 -22881678.167 10 0 61015 84600.00000 0 4342173.501 11437246.039 -22363807.974 10 0 61015 85500.00000 0 2680691.597 13571950.932 -21410774.332 10 0 61016 0.00000 0 1258887.236 15703248.299 -20041108.759 10 0 61016 900.00000 0 93627.642 17766166.742 -18281461.999 10 0 61016 1800.00000 0 -810677.573 19695384.301 -16166084.748 10 0 61016 2700.00000 0 -1462018.730 21427858.861 -13736157.650 10 0 61016 3600.00000 0 -1880198.130 22905379.932 -11038985.369 10 0 61016 4500.00000 0 -2095738.788 24076935.679 -8127070.058 10 0 61016 5400.00000 0 -2148337.295 24900795.471 -5057082.754 10 0 61016 6300.00000 0 -2084927.707 25346220.388 -1888753.346 10 0 61016 7200.00000 0 -1957439.885 25394729.810 1316298.529 10 0 61016 8100.00000 0 -1820348.549 25040871.168 4495768.064 10 0 61016 9000.00000 0 -1728118.097 24292460.940 7587881.168 10 0 61016 9900.00000 0 -1732652.371 23170287.443 10532597.282 10 0 61016 10800.00000 0 -1880858.062 21707288.692 13272775.343 10 0 61016 11700.00000 0 -2212425.299 19947240.607 15755280.091 10 0 61016 12600.00000 0 -2757919.440 17943011.287 17932007.414 10 0 61016 13500.00000 0 -3537264.632 15754454.913 19760809.342 10 0 61016 14400.00000 0 -4558683.046 13446033.537 21206301.619 10 0 61016 15300.00000 0 -5818134.403 11084265.877 22240539.133 10 0 61016 16200.00000 0 -7299279.441 8735108.926 22843547.296 10 0 61016 17100.00000 0 -8973969.224 6461380.481 23003700.146 10 0 61016 18000.00000 0 -10803240.397 4320328.616 22717938.785 10 0 61016 18900.00000 0 -12738775.619 2361447.713 21991826.605 10 0 61016 19800.00000 0 -14724769.338 624630.274 20839440.599 10 0 61016 20700.00000 0 -16700122.249 -861270.154 19283100.832 10 0 61016 21600.00000 0 -18600874.227 -2079406.609 17352942.969 10 0 61016 22500.00000 0 -20362775.518 -3025397.875 15086341.468 10 0 61016 23400.00000 0 -21923889.948 -3707261.038 12527193.749 10 0 61016 24300.00000 0 -23227122.295 -4144821.097 9725078.257 10 0 61016 25200.00000 0 -24222564.697 -4368622.917 6734301.723 10 0 61016 26100.00000 0 -24869564.057 -4418391.602 3612853.323 10 0 61016 27000.00000 0 -25138423.676 -4341106.293 421285.316 10 0 61016 27900.00000 0 -25011667.223 -4188768.785 -2778458.517 10 0 61016 28800.00000 0 -24484811.261 -4015961.357 -5924244.014 10 0 61016 29700.00000 0 -23566612.918 -3877297.328 -8954953.943 10 0 61016 30600.00000 0 -22278781.272 -3824872.656 -11811677.783 10 0 61016 31500.00000 0 -20655163.516 -3905827.024 -14438860.380 10 0 61016 32400.00000 0 -18740439.102 -4160118.476 -16785386.724 10 0 61016 33300.00000 0 -16588375.748 -4618606.750 -18805581.294 10 0 61016 34200.00000 0 -14259719.718 -5301527.562 -20460102.072 10 0 61016 35100.00000 0 -11819808.167 -6217423.586 -21716711.535 10 0 61016 36000.00000 0 -9336002.975 -7362578.690 -22550909.317 10 0 61016 36900.00000 0 -6875053.066 -8720980.685 -22946414.005 10 0 61016 37800.00000 0 -4500495.094 -10264815.601 -22895484.499 10 0 61016 38700.00000 0 -2270200.751 -11955473.968 -22399074.450 10 0 61016 39600.00000 0 -234172.829 -13745027.965 -21466816.578 10 0 61016 40500.00000 0 1567318.398 -15578118.280 -20116836.921 10 0 61016 41400.00000 0 3105181.181 -17394172.106 -18375402.398 10 0 61016 42300.00000 0 4362470.969 -19129859.522 -16276408.383 10 0 61016 43200.00000 0 5334842.222 -20721685.187 -13860716.169 10 0 61016 44100.00000 0 6030465.637 -22108606.401 -11175353.248 10 0 61016 45000.00000 0 6469415.706 -23234567.218 -8272592.225 10 0 61016 45900.00000 0 6682555.997 -24050841.725 -5208926.729 10 0 61016 46800.00000 0 6709970.831 -24518087.620 -2043964.809 10 0 61016 47700.00000 0 6599011.289 -24608023.440 1160737.838 10 0 61016 48600.00000 0 6402039.749 -24304658.808 4342881.315 10 0 61016 49500.00000 0 6173969.819 -23605026.085 7440637.443 10 0 61016 50400.00000 0 5969706.967 -22519382.981 10393853.819 10 0 61016 51300.00000 0 5841599.078 -21070878.082 13145222.118 10 0 61016 52200.00000 0 5837005.331 -19294693.883 15641387.852 10 0 61016 53100.00000 0 5996086.441 -17236703.768 17833980.122 10 0 61016 54000.00000 0 6349909.585 -14951699.550 19680541.928 10 0 61016 54900.00000 0 6918947.746 -12501263.786 21145343.805 10 0 61016 55800.00000 0 7712036.460 -9951375.497 22200065.985 10 0 61016 56700.00000 0 8725831.652 -7369848.553 22824337.012 10 0 61016 57600.00000 0 9944791.325 -4823708.412 23006119.450 10 0 61016 58500.00000 0 11341682.080 -2376615.117 22741936.190 10 0 61016 59400.00000 0 12878589.768 -86438.171 22036933.621 10 0 61016 60300.00000 0 14508392.797 1996917.596 20904780.861 10 0 61016 61200.00000 0 16176637.459 3833346.424 19367406.973 10 0 61016 62100.00000 0 17823738.072 5393961.600 17454580.919 10 0 61016 63000.00000 0 19387411.133 6662043.352 15203341.754 10 0 61016 63900.00000 0 20805242.792 7633476.325 12657289.215 10 0 61016 64800.00000 0 22017283.104 8316659.356 9865747.530 10 0 61016 65700.00000 0 22968559.051 8731892.046 6882817.636 10 0 61016 66600.00000 0 23611401.233 8910264.356 3766335.382 10 0 61016 67500.00000 0 23907486.527 8892096.219 576755.250 10 0 61016 68400.00000 0 23829510.464 8724993.115 -2624019.169 10 0 61016 69300.00000 0 23362418.257 8461599.801 -5773835.400 10 0 61016 70200.00000 0 22504141.718 8157147.282 -8811499.603 10 0 61016 71100.00000 0 21265809.859 7866897.057 -11677967.698 10 0 61016 72000.00000 0 19671423.031 7643591.166 -14317496.521 10 0 61016 72900.00000 0 17757003.036 7535016.550 -16678732.167 10 0 61016 73800.00000 0 15569253.623 7581787.484 -18715713.938 10 0 61016 74700.00000 0 13163786.499 7815440.788 -20388773.890 10 0 61016 75600.00000 0 10602986.215 8256925.307 -21665314.157 10 0 61016 76500.00000 0 7953602.486 8915550.585 -22520446.651 10 0 61016 77400.00000 0 5284169.988 9788440.222 -22937482.417 10 0 61016 78300.00000 0 2662362.892 10860514.115 -22908260.946 10 0 61016 79200.00000 0 152394.091 12105001.425 -22433312.813 10 0 61016 80100.00000 0 -2187432.709 13484463.647 -21521852.279 10 0 61016 81000.00000 0 -4306916.373 14952285.521 -20191599.744 10 0 61016 81900.00000 0 -6165806.158 16454571.680 -18468437.309 10 0 61016 82800.00000 0 -7735227.444 17932369.562 -16385903.935 10 0 61016 83700.00000 0 -8998626.646 19324125.181 -13984539.972 10 0 61016 84600.00000 0 -9952196.811 20568268.269 -11311093.785 10 0 61016 85500.00000 0 -10604767.399 21605817.614 -8417606.215 10 0 61017 0.00000 0 -10977164.355 22382896.389 -5360391.311 10 0 61017 900.00000 0 -11101069.257 22853051.373 -2198932.137 10 0 61017 1800.00000 0 -11017426.960 22979276.930 1005281.978 10 0 61017 2700.00000 0 -10774471.308 22735659.520 4189958.781 10 0 61017 3600.00000 0 -10425453.406 22108572.206 7293218.758 10 0 61017 4500.00000 0 -10026170.130 21097369.361 10254800.352 10 0 61017 5400.00000 0 -9632398.402 19714552.459 13017230.612 10 0 61017 6300.00000 0 -9297344.461 17985400.233 15526938.334 10 0 61017 7200.00000 0 -9069216.248 15947079.055 17735288.204 10 0 61017 8100.00000 0 -8989021.443 13647270.987 19599516.382 10 0 61017 9000.00000 0 -9088683.773 11142376.920 21083550.173 10 0 61017 9900.00000 0 -9389556.499 8495369.579 22158696.877 10 0 61017 10800.00000 0 -9901395.208 5773385.329 22804189.590 10 0 61017 11700.00000 0 -10621832.633 3045154.126 23007580.493 10 0 61017 12600.00000 0 -11536377.392 378373.268 22764974.947 10 0 61017 13500.00000 0 -12618936.725 -2162867.394 22081102.595 10 0 61017 14400.00000 0 -13832841.711 -4520503.506 20969224.458 10 0 61017 15300.00000 0 -15132332.657 -6644658.727 19450877.881 10 0 61017 16200.00000 0 -16464443.326 -8495463.529 17555463.918 10 0 61017 17100.00000 0 -17771206.107 -10044456.112 15319684.528 10 0 61017 18000.00000 0 -18992086.716 -11275508.395 12786839.653 10 0 61017 18900.00000 0 -20066547.295 -12185239.503 10005996.806 10 0 61017 19800.00000 0 -20936631.059 -12782900.292 7031048.324 10 0 61017 20700.00000 0 -21549460.302 -13089734.293 3919673.693 10 0 61017 21600.00000 0 -21859542.842 -13137842.298 732226.429 10 0 61017 22500.00000 0 -21830789.516 -12968598.590 -2469433.376 10 0 61017 23400.00000 0 -21438157.113 -12630685.664 -5623138.280 10 0 61017 24300.00000 0 -20668846.547 -12177830.561 -8667621.177 10 0 61017 25200.00000 0 -19523004.565 -11666338.575 -11543707.715 10 0 61017 26100.00000 0 -18013898.026 -11152528.900 -14195469.870 10 0 61017 27000.00000 0 -16167551.925 -10690181.001 -16571317.775 10 0 61017 27900.00000 0 -14021864.868 -10328100.228 -18625008.155 10 0 61017 28800.00000 0 -11625237.737 -10107906.181 -20316549.291 10 0 61017 29700.00000 0 -9034771.741 -10062138.023 -21612984.584 10 0 61017 30600.00000 0 -6314110.169 -10212757.515 -22489039.191 10 0 61017 31500.00000 0 -3531013.170 -10570113.808 -22927616.912 10 0 61017 32400.00000 0 -754766.100 -11132414.450 -22920137.459 10 0 61017 33300.00000 0 1946471.070 -11885725.736 -22466707.342 10 0 61017 34200.00000 0 4508263.196 -12804503.081 -21576120.823 10 0 61017 35100.00000 0 6872340.311 -13852629.651 -20265690.679 10 0 61017 36000.00000 0 8988777.591 -14984919.955 -18560911.830 10 0 61017 36900.00000 0 10817824.443 -16149025.248 -16494964.182 10 0 61017 37800.00000 0 12331307.026 -17287660.483 -14108064.269 10 0 61017 38700.00000 0 13513546.400 -18341058.724 -11446678.310 10 0 61017 39600.00000 0 14361754.949 -19249549.137 -8562612.230 10 0 61017 40500.00000 0 14885895.780 -19956149.267 -5511996.758 10 0 61017 41400.00000 0 15108012.565 -20409061.622 -2354187.906 10 0 61017 42300.00000 0 15061059.700 -20563968.609 849394.983 10 0 61017 43200.00000 0 14787283.841 -20386028.433 4036470.222 10 0 61017 44100.00000 0 14336226.778 -19851487.408 7145109.633 10 0 61017 45000.00000 0 13762435.511 -18948840.440 10114944.890 10 0 61017 45900.00000 0 13122977.484 -17679490.759 12888340.438 10 0 61017 46800.00000 0 12474866.842 -16057881.166 15411509.999 10 0 61017 47700.00000 0 11872510.871 -14111091.385 17635555.089 10 0 61017 48600.00000 0 11365284.474 -11877918.442 19517405.864 10 0 61017 49500.00000 0 10995334.674 -9407478.461 21020646.846 10 0 61017 50400.00000 0 10795707.075 -6757387.995 22116212.469 10 0 61017 51300.00000 0 10788872.405 -3991600.175 22782940.103 10 0 61017 52200.00000 0 10985714.333 -1177984.828 23007970.937 10 0 61017 53100.00000 0 11385020.444 1614247.922 22786991.934 10 0 61017 54000.00000 0 11973497.311 4317174.986 22124314.875 10 0 61017 54900.00000 0 12726308.888 6866731.100 21032791.387 10 0 61017 55800.00000 0 13608115.844 9205117.960 19533565.646 10 0 61017 56700.00000 0 14574572.701 11282953.301 17655669.228 10 0 61017 57600.00000 0 15574220.715 13061072.123 15435465.336 10 0 61017 58500.00000 0 16550697.829 14511906.382 12915952.338 10 0 61017 59400.00000 0 17445173.759 15620386.752 10145939.173 10 0 61017 60300.00000 0 18198908.546 16384329.622 7179107.604 10 0 61017 61200.00000 0 18755827.442 16814293.718 4072978.680 10 0 61017 62100.00000 0 19065003.860 16932912.722 887802.771 10 0 61017 63000.00000 0 19082945.631 16773732.162 -2314605.754 10 0 61017 63900.00000 0 18775587.593 16379599.607 -5472066.735 10 0 61017 64800.00000 0 18119905.591 15800676.095 -8523241.994 10 0 61017 65700.00000 0 17105082.633 15092152.746 -11408829.004 10 0 61017 66600.00000 0 15733176.561 14311769.134 -14072716.815 10 0 61017 67500.00000 0 14019259.537 13517238.433 -16463081.344 10 0 61017 68400.00000 0 11991021.791 12763688.416 -18533398.295 10 0 61017 69300.00000 0 9687854.603 12101226.796 -20243353.528 10 0 61017 70200.00000 0 7159449.476 11572734.154 -21559632.876 10 0 61017 71100.00000 0 4463970.713 11211978.105 -22456575.717 10 0 61017 72000.00000 0 1665876.678 11042128.794 -22916679.372 10 0 61017 72900.00000 0 -1166520.265 11074738.802 -22930944.288 10 0 61017 73800.00000 0 -3963654.120 11309230.952 -22499053.122 10 0 61017 74700.00000 0 -6657358.094 11732915.997 -21629379.986 10 0 61017 75600.00000 0 -9183459.779 12321539.730 -20338829.477 10 0 61017 76500.00000 0 -11484210.954 13040336.647 -18652508.360 10 0 61017 77400.00000 0 -13510451.008 13845545.746 -16603236.112 10 0 61017 78300.00000 0 -15223414.190 14686324.355 -14230903.739 10 0 61017 79200.00000 0 -16596105.788 15506978.922 -11581693.314 10 0 61017 80100.00000 0 -17614190.445 16249418.042 -8707173.668 10 0 61017 81000.00000 0 -18276356.446 16855723.493 -5663290.172 10 0 61017 81900.00000 0 -18594141.970 17270729.910 -2509268.850 10 0 61017 82800.00000 0 -18591232.102 17444503.358 693543.089 10 0 61017 83700.00000 0 -18302257.800 17334613.342 3882876.949 10 0 61017 84600.00000 0 -17771149.092 16908101.736 6996758.319 10 0 61017 85500.00000 0 -17049113.500 16143065.042 9974714.520 99